Location: Newark
(48.6461°N, 4.3644°W)
Time: 04:30:51
(UTC+00:00)

Transit 4A - Pass Details

Date: 24 January 2020
Orbit: 872 x 973 km, 66.8° (Epoch: 18 February)

Event Time Altitude Azimuth Distance (km) Brightness Sun altitude
Rises 14:52:04 0° 325° (NW) 3,477 10.7 15.0°
Reaches altitude 10° 14:54:37 10° 330° (NNW) 2,532 10.0 14.8°
Maximum altitude 15:00:21 56° 49° (NE) 1,039 8.1 14.3°
Drops below altitude 10° 15:06:05 10° 127° (SE) 2,532 10.2 13.7°
Sets 15:08:38 0° 131° (SE) 3,476 10.9 13.4°
